QPF
0.00 0.00 0.00 0.00 0.00 0.00 0.00 0.00 0.00 0.00 0.00 0.00 0.00 0.00 0.00 0.00 0.00 0.01 0.01 0.01 0.01 0.01 0.01 0.01 0.01 0.02 0.02 0.01 0.01 0.02 0.02 0.03 0.05 0.06 0.05 0.05 0.06 0.06 0.06 0.06 0.07 0.08 0.08 0.08
0.00 0.00 0.00 0.00 0.00 0.00 0.00 0.00 0.00 0.00 0.00 0.00 0.00 0.00 0.00 0.00 0.00 0.01 0.01 0.01 0.01 0.01 0.01 0.01 0.02 0.03 0.03 0.03 0.03 0.03 0.02 0.02 0.03 0.03 0.04 0.04 0.05 0.05 0.05 0.06 0.07 0.09 0.08 0.06
0.00 0.00 0.00 0.00 0.00 0.00 0.00 0.00 0.00 0.00 0.00 0.00 0.00 0.00 0.01 0.01 0.00 0.01 0.01 0.02 0.02 0.01 0.02 0.01 0.02 0.02 0.02 0.02 0.03 0.03 0.03 0.03 0.03 0.03 0.03 0.04 0.03 0.04 0.04 0.06 0.08 0.10 0.11 0.09
0.00 0.00 0.00 0.00 0.00 0.00 0.00 0.00 0.00 0.00 0.00 0.00 0.00 0.01 0.01 0.01 0.01 0.01 0.01 0.03 0.03 0.02 0.03 0.02 0.01 0.02 0.02 0.02 0.02 0.02 0.02 0.02 0.03 0.03 0.04 0.04 0.04 0.04 0.05 0.05 0.06 0.08 0.09 0.09
0.00 0.00 0.00 0.00 0.00 0.00 0.00 0.00 0.00 0.00 0.00 0.00 0.00 0.01 0.00 0.00 0.01 0.01 0.02 0.04 0.03 0.02 0.02 0.03 0.03 0.03 0.03 0.03 0.02 0.03 0.02 0.02 0.02 0.03 0.04 0.05 0.05 0.05 0.05 0.05 0.04 0.05 0.05 0.05
0.00 0.00 0.00 0.00 0.00 0.00 0.00 0.00 0.00 0.00 0.00 0.00 0.00 0.00 0.01 0.00 0.00 0.01 0.01 0.02 0.02 0.02 0.03 0.03 0.03 0.02 0.03 0.03 0.03 0.02 0.03 0.03 0.03 0.02 0.03 0.04 0.04 0.04 0.04 0.04 0.03 0.03 0.04 0.05
0.00 0.00 0.00 0.00 0.00 0.00 0.00 0.00 0.00 0.00 0.00 0.00 0.00 0.00 0.00 0.00 0.00 0.00 0.00 0.01 0.02 0.02 0.01 0.01 0.02 0.01 0.01 0.02 0.02 0.02 0.02 0.02 0.03 0.03 0.03 0.03 0.03 0.03 0.04 0.04 0.03 0.02 0.02 0.03
0.00 0.00 0.00 0.00 0.00 0.00 0.00 0.00 0.00 0.00 0.00 0.00 0.00 0.00 0.00 0.00 0.00 0.00 0.00 0.00 0.01 0.01 0.01 0.03 0.05 0.04 0.04 0.03 0.02 0.02 0.03 0.04 0.05 0.05 0.06 0.04 0.03 0.03 0.03 0.03 0.04 0.02 0.02 0.02
0.00 0.00 0.00 0.00 0.00 0.00 0.00 0.00 0.00 0.00 0.00 0.00 0.00 0.00 0.00 0.00 0.00 0.00 0.00 0.00 0.01 0.03 0.04 0.05 0.07 0.08 0.09 0.08 0.04 0.03 0.04 0.06 0.06 0.06 0.06 0.05 0.03 0.03 0.02 0.02 0.03 0.02 0.01 0.01
0.00 0.00 0.00 0.00 0.00 0.00 0.00 0.00 0.00 0.00 0.00 0.00 0.00 0.00 0.00 0.00 0.00 0.00 0.00 0.01 0.02 0.03 0.05 0.03 0.02 0.02 0.03 0.05 0.03 0.02 0.02 0.03 0.03 0.02 0.02 0.03 0.03 0.03 0.02 0.02 0.01 0.01 0.01 0.02
0.00 0.00 0.00 0.00 0.00 0.00 0.00 0.00 0.00 0.00 0.00 0.01 0.01 0.00 0.00 0.00 0.00 0.01 0.01 0.01 0.02 0.02 0.03 0.03 0.02 0.02 0.02 0.03 0.03 0.01 0.01 0.01 0.01 0.01 0.02 0.02 0.02 0.02 0.02 0.02 0.01 0.01 0.01 0.02
0.00 0.00 0.00 0.00 0.00 0.00 0.00 0.00 0.00 0.01 0.01 0.01 0.01 0.01 0.00 0.00 0.00 0.00 0.01 0.02 0.02 0.02 0.03 0.02 0.02 0.01 0.01 0.01 0.02 0.01 0.01 0.01 0.01 0.01 0.02 0.01 0.01 0.02 0.02 0.01 0.01 0.01 0.01 0.01
0.01 0.01 0.01 0.01 0.01 0.00 0.00 0.00 0.00 0.00 0.01 0.01 0.01 0.01 0.00 0.00 0.00 0.01 0.01 0.01 0.02 0.02 0.02 0.01 0.01 0.01 0.00 0.01 0.01 0.01 0.01 0.01 0.01 0.01 0.01 0.02 0.01 0.01 0.01 0.01 0.01 0.01 0.01 0.01
0.00 0.01 0.01 0.01 0.01 0.00 0.00 0.00 0.00 0.00 0.02 0.01 0.01 0.01 0.01 0.01 0.00 0.01 0.01 0.01 0.01 0.01 0.01 0.01 0.01 0.01 0.01 0.01 0.01 0.01 0.01 0.01 0.01 0.01 0.01 0.02 0.02 0.02 0.01 0.01 0.01 0.01 0.01 0.01
0.00 0.02 0.01 0.00 0.00 0.00 0.00 0.00 0.00 0.00 0.01 0.02 0.01 0.00 0.01 0.00 0.00 0.00 0.01 0.01 0.01 0.01 0.01 0.01 0.01 0.01 0.01 0.01 0.01 0.01 0.01 0.01 0.01 0.01 0.01 0.03 0.03 0.02 0.02 0.02 0.01 0.01 0.01 0.01
0.00 0.01 0.01 0.01 0.00 0.00 0.00 0.00 0.00 0.00 0.00 0.01 0.01 0.01 0.00 0.00 0.00 0.00 0.01 0.01 0.01 0.01 0.01 0.01 0.02 0.02 0.02 0.01 0.01 0.01 0.01 0.01 0.02 0.01 0.02 0.02 0.03 0.02 0.02 0.02 0.01 0.01 0.01 0.01
0.00 0.01 0.01 0.01 0.01 0.01 0.02 0.00 0.00 0.01 0.01 0.01 0.03 0.02 0.00 0.00 0.00 0.01 0.01 0.01 0.01 0.01 0.01 0.01 0.02 0.02 0.02 0.01 0.01 0.01 0.01 0.01 0.02 0.02 0.02 0.02 0.03 0.02 0.01 0.01 0.01 0.02 0.02 0.02
0.00 0.01 0.01 0.01 0.01 0.02 0.02 0.00 0.00 0.02 0.02 0.02 0.02 0.02 0.01 0.01 0.01 0.01 0.01 0.01 0.01 0.01 0.01 0.01 0.01 0.01 0.01 0.01 0.01 0.01 0.01 0.01 0.02 0.03 0.03 0.02 0.02 0.02 0.02 0.02 0.02 0.02 0.02 0.02
0.00 0.01 0.02 0.02 0.02 0.02 0.02 0.01 0.01 0.04 0.04 0.02 0.02 0.01 0.01 0.01 0.01 0.02 0.01 0.01 0.02 0.01 0.01 0.01 0.01 0.01 0.01 0.01 0.01 0.01 0.02 0.02 0.03 0.03 0.03 0.02 0.02 0.02 0.03 0.03 0.02 0.02 0.02 0.02
0.00 0.00 0.02 0.02 0.02 0.02 0.03 0.01 0.00 0.02 0.06 0.02 0.01 0.01 0.00 0.01 0.02 0.02 0.02 0.02 0.02 0.02 0.02 0.01 0.01 0.01 0.02 0.01 0.02 0.02 0.02 0.02 0.03 0.03 0.03 0.02 0.02 0.01 0.02 0.01 0.01 0.01 0.01 0.01
0.02 0.02 0.02 0.02 0.02 0.02 0.01 0.00 0.01 0.05 0.05 0.01 0.00 0.00 0.00 0.01 0.03 0.02 0.02 0.02 0.02 0.02 0.02 0.01 0.01 0.02 0.02 0.02 0.03 0.03 0.02 0.02 0.02 0.02 0.02 0.02 0.02 0.01 0.01 0.01 0.01 0.01 0.01 0.01
0.03 0.03 0.03 0.02 0.02 0.03 0.01 0.01 0.02 0.02 0.01 0.01 0.00 0.00 0.01 0.01 0.01 0.01 0.02 0.03 0.03 0.02 0.01 0.01 0.02 0.02 0.02 0.02 0.02 0.02 0.02 0.02 0.02 0.03 0.03 0.02 0.02 0.01 0.02 0.02 0.01 0.01 0.01 0.01
0.03 0.03 0.03 0.03 0.03 0.01 0.00 0.01 0.01 0.00 0.00 0.00 0.00 0.00 0.01 0.01 0.01 0.01 0.01 0.02 0.01 0.01 0.01 0.02 0.02 0.02 0.02 0.01 0.02 0.02 0.02 0.02 0.02 0.03 0.03 0.02 0.02 0.02 0.02 0.02 0.02 0.02 0.02 0.01
0.01 0.01 0.02 0.03 0.01 0.01 0.01 0.01 0.00 0.00 0.00 0.00 0.00 0.01 0.01 0.01 0.01 0.00 0.01 0.01 0.01 0.01 0.02 0.03 0.03 0.03 0.02 0.02 0.02 0.02 0.02 0.02 0.03 0.04 0.04 0.03 0.02 0.02 0.02 0.02 0.02 0.01 0.01 0.01
0.01 0.01 0.02 0.03 0.01 0.01 0.01 0.01 0.00 0.00 0.00 0.00 0.00 0.00 0.01 0.00 0.00 0.01 0.01 0.01 0.01 0.01 0.01 0.01 0.02 0.02 0.02 0.01 0.02 0.02 0.02 0.03 0.04 0.04 0.03 0.02 0.01 0.01 0.01 0.01 0.01 0.01 0.01 0.01
0.02 0.02 0.02 0.02 0.01 0.01 0.01 0.01 0.00 0.00 0.00 0.00 0.00 0.00 0.00 0.00 0.00 0.00 0.01 0.01 0.01 0.01 0.01 0.02 0.02 0.02 0.01 0.01 0.02 0.01 0.01 0.02 0.03 0.03 0.02 0.01 0.01 0.01 0.01 0.01 0.00 0.00 0.00 0.00
MSLP
1012.44 1012.64 1012.70 1012.64 1012.52 1012.41 1012.36 1012.42 1012.64 1013.00 1013.48 1014.07 1014.70 1015.35 1015.97 1016.54 1017.04 1017.45 1017.79 1018.04 1018.21 1018.32 1018.37 1018.39 1018.38 1018.37 1018.36 1018.35 1018.34 1018.31 1018.26 1018.15 1017.99 1017.78 1017.54 1017.30 1017.09 1016.94 1016.86 1016.84 1016.86 1016.89 1016.89 1016.82
1012.49 1012.60 1012.58 1012.48 1012.35 1012.25 1012.24 1012.36 1012.62 1013.02 1013.51 1014.07 1014.65 1015.23 1015.77 1016.28 1016.74 1017.16 1017.54 1017.88 1018.17 1018.42 1018.62 1018.77 1018.88 1018.95 1019.00 1019.02 1019.01 1018.97 1018.87 1018.72 1018.52 1018.26 1017.97 1017.68 1017.41 1017.19 1017.03 1016.94 1016.90 1016.87 1016.81 1016.69
1012.41 1012.41 1012.32 1012.18 1012.05 1011.98 1012.02 1012.20 1012.50 1012.91 1013.38 1013.87 1014.36 1014.83 1015.27 1015.69 1016.10 1016.52 1016.94 1017.38 1017.82 1018.23 1018.61 1018.93 1019.17 1019.35 1019.46 1019.51 1019.50 1019.44 1019.32 1019.14 1018.91 1018.63 1018.32 1018.00 1017.70 1017.43 1017.23 1017.08 1016.97 1016.87 1016.77 1016.62
1012.23 1012.14 1011.98 1011.81 1011.69 1011.66 1011.77 1012.00 1012.34 1012.75 1013.17 1013.58 1013.95 1014.28 1014.58 1014.89 1015.24 1015.64 1016.13 1016.68 1017.27 1017.87 1018.44 1018.93 1019.32 1019.61 1019.78 1019.86 1019.85 1019.77 1019.63 1019.43 1019.19 1018.92 1018.62 1018.30 1018.00 1017.72 1017.48 1017.28 1017.12 1016.98 1016.83 1016.65
1012.02 1011.83 1011.62 1011.44 1011.35 1011.39 1011.56 1011.85 1012.23 1012.62 1012.99 1013.30 1013.53 1013.71 1013.86 1014.05 1014.33 1014.73 1015.27 1015.94 1016.69 1017.47 1018.22 1018.88 1019.41 1019.79 1020.02 1020.12 1020.11 1020.01 1019.85 1019.65 1019.42 1019.17 1018.90 1018.62 1018.33 1018.06 1017.80 1017.58 1017.38 1017.19 1017.01 1016.81
1011.83 1011.58 1011.34 1011.18 1011.13 1011.23 1011.47 1011.82 1012.22 1012.60 1012.91 1013.11 1013.21 1013.24 1013.25 1013.33 1013.55 1013.94 1014.53 1015.30 1016.20 1017.15 1018.06 1018.88 1019.53 1019.99 1020.27 1020.37 1020.35 1020.23 1020.06 1019.86 1019.65 1019.43 1019.20 1018.96 1018.72 1018.46 1018.21 1017.96 1017.73 1017.51 1017.30 1017.09
1011.74 1011.45 1011.21 1011.07 1011.07 1011.24 1011.54 1011.94 1012.35 1012.70 1012.95 1013.06 1013.03 1012.94 1012.83 1012.83 1013.00 1013.39 1014.04 1014.90 1015.92 1017.01 1018.06 1019.00 1019.74 1020.26 1020.56 1020.67 1020.63 1020.49 1020.30 1020.10 1019.91 1019.73 1019.55 1019.36 1019.15 1018.92 1018.67 1018.41 1018.14 1017.89 1017.65 1017.43
1011.80 1011.50 1011.27 1011.16 1011.20 1011.40 1011.74 1012.16 1012.56 1012.89 1013.07 1013.10 1012.99 1012.80 1012.62 1012.57 1012.72 1013.14 1013.83 1014.78 1015.90 1017.10 1018.25 1019.27 1020.08 1020.63 1020.94 1021.04 1020.97 1020.82 1020.62 1020.42 1020.25 1020.10 1019.96 1019.81 1019.63 1019.41 1019.16 1018.88 1018.58 1018.29 1018.02 1017.78
1012.04 1011.75 1011.52 1011.42 1011.48 1011.69 1012.02 1012.42 1012.79 1013.07 1013.20 1013.16 1013.00 1012.77 1012.57 1012.51 1012.68 1013.14 1013.90 1014.92 1016.12 1017.39 1018.62 1019.68 1020.52 1021.08 1021.39 1021.47 1021.39 1021.21 1021.01 1020.81 1020.65 1020.53 1020.41 1020.29 1020.13 1019.92 1019.66 1019.35 1019.02 1018.69 1018.39 1018.13
1012.46 1012.16 1011.93 1011.82 1011.85 1012.02 1012.30 1012.63 1012.94 1013.15 1013.22 1013.15 1012.97 1012.75 1012.58 1012.57 1012.81 1013.35 1014.18 1015.26 1016.52 1017.84 1019.09 1020.17 1021.01 1021.57 1021.86 1021.93 1021.84 1021.65 1021.44 1021.26 1021.11 1021.00 1020.90 1020.79 1020.64 1020.43 1020.15 1019.81 1019.45 1019.09 1018.75 1018.47
1013.01 1012.71 1012.45 1012.29 1012.25 1012.33 1012.50 1012.73 1012.93 1013.06 1013.08 1012.99 1012.83 1012.66 1012.58 1012.67 1013.02 1013.65 1014.56 1015.71 1017.01 1018.34 1019.59 1020.66 1021.48 1022.02 1022.30 1022.35 1022.26 1022.08 1021.88 1021.70 1021.57 1021.47 1021.39 1021.28 1021.13 1020.91 1020.62 1020.27 1019.89 1019.50 1019.15 1018.85
1013.63 1013.31 1013.00 1012.76 1012.61 1012.56 1012.59 1012.67 1012.75 1012.78 1012.75 1012.66 1012.55 1012.48 1012.51 1012.75 1013.22 1013.97 1014.98 1016.18 1017.49 1018.82 1020.04 1021.07 1021.85 1022.37 1022.63 1022.68 1022.59 1022.43 1022.25 1022.10 1021.98 1021.90 1021.83 1021.74 1021.59 1021.38 1021.09 1020.74 1020.36 1019.98 1019.63 1019.33
1014.23 1013.88 1013.53 1013.19 1012.92 1012.71 1012.58 1012.49 1012.43 1012.36 1012.28 1012.21 1012.17 1012.21 1012.40 1012.79 1013.42 1014.29 1015.37 1016.61 1017.93 1019.22 1020.39 1021.37 1022.10 1022.57 1022.81 1022.87 1022.79 1022.66 1022.51 1022.39 1022.30 1022.24 1022.19 1022.12 1021.99 1021.80 1021.55 1021.23 1020.89 1020.54 1020.22 1019.94
1014.75 1014.38 1013.97 1013.55 1013.15 1012.80 1012.50 1012.25 1012.05 1011.90 1011.79 1011.73 1011.78 1011.95 1012.29 1012.84 1013.61 1014.59 1015.75 1017.01 1018.31 1019.54 1020.64 1021.54 1022.20 1022.63 1022.85 1022.90 1022.85 1022.75 1022.64 1022.55 1022.50 1022.47 1022.44 1022.40 1022.31 1022.17 1021.98 1021.73 1021.46 1021.18 1020.92 1020.70
1015.13 1014.75 1014.31 1013.83 1013.34 1012.86 1012.42 1012.04 1011.73 1011.50 1011.37 1011.35 1011.48 1011.77 1012.26 1012.96 1013.86 1014.93 1016.13 1017.39 1018.63 1019.79 1020.80 1021.60 1022.19 1022.56 1022.76 1022.81 1022.77 1022.70 1022.63 1022.58 1022.56 1022.56 1022.57 1022.57 1022.54 1022.46 1022.35 1022.20 1022.04 1021.86 1021.70 1021.55
1015.35 1014.99 1014.55 1014.04 1013.49 1012.94 1012.41 1011.94 1011.55 1011.28 1011.14 1011.16 1011.36 1011.77 1012.38 1013.19 1014.19 1015.32 1016.53 1017.76 1018.94 1020.01 1020.91 1021.61 1022.12 1022.43 1022.59 1022.64 1022.61 1022.56 1022.52 1022.50 1022.51 1022.54 1022.58 1022.62 1022.65 1022.66 1022.64 1022.61 1022.57 1022.52 1022.47 1022.41
1015.41 1015.10 1014.68 1014.19 1013.64 1013.06 1012.49 1011.98 1011.56 1011.27 1011.14 1011.21 1011.48 1011.97 1012.67 1013.57 1014.62 1015.78 1016.98 1018.15 1019.25 1020.22 1021.01 1021.61 1022.03 1022.29 1022.41 1022.45 1022.43 1022.40 1022.37 1022.37 1022.39 1022.44 1022.51 1022.58 1022.67 1022.75 1022.83 1022.91 1023.00 1023.08 1023.14 1023.18
1015.37 1015.11 1014.75 1014.30 1013.79 1013.24 1012.68 1012.18 1011.76 1011.49 1011.39 1011.49 1011.82 1012.37 1013.12 1014.07 1015.14 1016.28 1017.44 1018.55 1019.56 1020.42 1021.12 1021.63 1021.98 1022.18 1022.28 1022.31 1022.29 1022.26 1022.24 1022.24 1022.27 1022.32 1022.40 1022.49 1022.61 1022.75 1022.91 1023.09 1023.29 1023.48 1023.65 1023.79
1015.28 1015.07 1014.78 1014.40 1013.95 1013.46 1012.95 1012.49 1012.11 1011.86 1011.80 1011.94 1012.30 1012.88 1013.66 1014.61 1015.67 1016.78 1017.89 1018.92 1019.84 1020.62 1021.23 1021.68 1021.98 1022.15 1022.23 1022.25 1022.24 1022.22 1022.20 1022.20 1022.21 1022.25 1022.31 1022.41 1022.53 1022.70 1022.92 1023.16 1023.44 1023.71 1023.98 1024.19
1015.22 1015.04 1014.81 1014.50 1014.12 1013.70 1013.26 1012.85 1012.52 1012.32 1012.29 1012.46 1012.84 1013.43 1014.20 1015.13 1016.16 1017.22 1018.26 1019.22 1020.07 1020.78 1021.34 1021.74 1022.02 1022.19 1022.27 1022.31 1022.31 1022.29 1022.27 1022.26 1022.26 1022.27 1022.31 1022.38 1022.49 1022.66 1022.89 1023.17 1023.49 1023.82 1024.14 1024.42
1015.22 1015.07 1014.87 1014.61 1014.29 1013.94 1013.56 1013.21 1012.93 1012.78 1012.77 1012.96 1013.34 1013.92 1014.67 1015.57 1016.54 1017.54 1018.52 1019.42 1020.22 1020.88 1021.41 1021.81 1022.09 1022.27 1022.39 1022.45 1022.48 1022.48 1022.47 1022.45 1022.42 1022.41 1022.41 1022.45 1022.53 1022.68 1022.89 1023.17 1023.50 1023.85 1024.21 1024.52
1015.34 1015.17 1014.98 1014.75 1014.47 1014.16 1013.84 1013.54 1013.31 1013.18 1013.20 1013.40 1013.77 1014.33 1015.04 1015.88 1016.80 1017.74 1018.65 1019.51 1020.26 1020.91 1021.44 1021.85 1022.16 1022.38 1022.54 1022.65 1022.72 1022.75 1022.76 1022.74 1022.70 1022.66 1022.63 1022.63 1022.68 1022.79 1022.97 1023.23 1023.54 1023.89 1024.26 1024.59
1015.56 1015.36 1015.15 1014.91 1014.65 1014.36 1014.08 1013.81 1013.62 1013.52 1013.56 1013.75 1014.11 1014.64 1015.31 1016.09 1016.95 1017.83 1018.69 1019.50 1020.24 1020.88 1021.41 1021.85 1022.21 1022.49 1022.71 1022.87 1022.99 1023.07 1023.10 1023.09 1023.06 1023.00 1022.95 1022.92 1022.93 1023.01 1023.15 1023.38 1023.66 1024.00 1024.36 1024.70
1015.85 1015.60 1015.35 1015.10 1014.83 1014.55 1014.28 1014.04 1013.87 1013.80 1013.85 1014.05 1014.40 1014.89 1015.52 1016.25 1017.05 1017.88 1018.69 1019.46 1020.18 1020.81 1021.37 1021.84 1022.24 1022.57 1022.85 1023.07 1023.25 1023.36 1023.43 1023.45 1023.42 1023.37 1023.31 1023.27 1023.25 1023.30 1023.42 1023.61 1023.88 1024.19 1024.54 1024.88
1016.15 1015.85 1015.56 1015.27 1014.98 1014.70 1014.45 1014.23 1014.09 1014.04 1014.11 1014.32 1014.66 1015.14 1015.73 1016.42 1017.16 1017.94 1018.70 1019.44 1020.13 1020.76 1021.32 1021.82 1022.25 1022.63 1022.95 1023.23 1023.44 1023.60 1023.70 1023.75 1023.75 1023.71 1023.66 1023.61 1023.60 1023.63 1023.73 1023.91 1024.15 1024.45 1024.78 1025.12
1016.39 1016.05 1015.72 1015.40 1015.09 1014.81 1014.57 1014.38 1014.27 1014.26 1014.36 1014.59 1014.94 1015.41 1015.98 1016.63 1017.34 1018.06 1018.79 1019.48 1020.14 1020.75 1021.31 1021.81 1022.26 1022.67 1023.02 1023.32 1023.57 1023.76 1023.89 1023.96 1023.98 1023.97 1023.93 1023.90 1023.89 1023.93 1024.03 1024.19 1024.43 1024.71 1025.03 1025.36
Thickness
5705 5705 5706 5711 5716 5719 5719 5717 5714 5715 5722 5721 5716 5712 5708 5708 5708 5705 5703 5701 5699 5695 5692 5691 5690 5689 5689 5688 5688 5688 5688 5688 5688 5688 5688 5687 5686 5685 5685 5684 5683 5684 5685 5686
5695 5700 5710 5713 5712 5711 5712 5711 5712 5711 5716 5714 5709 5705 5706 5704 5701 5700 5696 5692 5690 5687 5684 5681 5680 5679 5678 5677 5677 5678 5678 5678 5679 5679 5678 5677 5677 5677 5676 5676 5675 5676 5678 5679
5697 5705 5709 5705 5704 5704 5708 5711 5712 5707 5709 5712 5705 5698 5700 5698 5698 5695 5692 5688 5684 5679 5675 5673 5671 5669 5667 5666 5666 5667 5667 5668 5669 5670 5670 5670 5669 5669 5668 5668 5669 5668 5670 5671
5699 5705 5702 5702 5703 5706 5703 5714 5712 5708 5704 5705 5705 5699 5701 5698 5691 5688 5684 5680 5676 5672 5669 5666 5662 5658 5657 5655 5656 5656 5657 5658 5659 5660 5662 5661 5661 5660 5658 5658 5660 5660 5662 5664
5696 5701 5700 5700 5705 5708 5709 5714 5711 5710 5708 5704 5704 5699 5705 5700 5690 5686 5679 5674 5670 5665 5661 5657 5653 5649 5646 5646 5646 5646 5646 5647 5649 5650 5651 5651 5650 5649 5649 5649 5650 5651 5652 5654
5701 5707 5707 5707 5711 5711 5709 5708 5706 5708 5709 5692 5703 5697 5699 5700 5695 5689 5678 5669 5663 5657 5652 5647 5643 5640 5638 5636 5636 5636 5636 5637 5637 5639 5639 5639 5639 5639 5639 5639 5640 5642 5643 5644
5690 5699 5707 5710 5703 5704 5705 5699 5688 5687 5689 5693 5704 5696 5696 5697 5694 5689 5676 5664 5656 5649 5644 5639 5635 5632 5629 5626 5625 5626 5626 5625 5626 5627 5627 5627 5628 5628 5629 5629 5630 5631 5633 5634
5683 5686 5700 5706 5705 5702 5703 5702 5689 5678 5683 5695 5696 5690 5693 5688 5684 5681 5672 5659 5648 5641 5636 5630 5625 5622 5619 5616 5615 5615 5615 5615 5615 5615 5615 5615 5616 5617 5618 5618 5619 5619 5621 5622
5688 5688 5701 5706 5710 5708 5701 5703 5712 5699 5696 5689 5694 5692 5682 5676 5670 5667 5659 5649 5640 5632 5626 5621 5616 5612 5608 5605 5604 5604 5604 5604 5604 5604 5604 5604 5604 5605 5606 5607 5608 5610 5610 5611
5691 5682 5695 5702 5706 5704 5708 5706 5696 5692 5677 5676 5686 5688 5691 5676 5667 5658 5650 5642 5634 5625 5619 5613 5608 5604 5599 5597 5595 5594 5594 5594 5594 5594 5593 5593 5592 5593 5594 5596 5597 5598 5598 5599
5691 5681 5687 5694 5693 5695 5694 5694 5694 5695 5691 5677 5671 5683 5693 5687 5676 5661 5649 5639 5628 5619 5612 5605 5601 5596 5592 5589 5587 5586 5585 5584 5584 5583 5583 5582 5582 5583 5584 5585 5585 5586 5587 5589
5684 5683 5681 5688 5698 5702 5699 5696 5692 5680 5679 5683 5679 5678 5681 5681 5676 5662 5645 5632 5621 5612 5605 5599 5593 5589 5585 5582 5579 5577 5576 5575 5574 5573 5572 5571 5571 5572 5573 5573 5574 5575 5576 5578
5678 5674 5668 5672 5680 5689 5690 5693 5693 5691 5685 5678 5673 5674 5670 5671 5664 5652 5638 5624 5612 5604 5597 5591 5586 5581 5577 5573 5570 5568 5566 5565 5564 5563 5562 5561 5561 5561 5561 5562 5563 5564 5565 5566
5676 5673 5671 5667 5675 5685 5683 5687 5689 5686 5679 5677 5679 5678 5667 5660 5649 5638 5626 5615 5605 5596 5590 5584 5578 5572 5568 5565 5562 5559 5557 5555 5554 5553 5552 5551 5550 5550 5550 5551 5552 5553 5554 5556
5672 5670 5675 5680 5685 5686 5684 5684 5686 5683 5683 5676 5679 5677 5671 5657 5645 5632 5619 5607 5597 5589 5583 5577 5571 5565 5561 5557 5554 5551 5549 5547 5546 5544 5543 5541 5540 5540 5541 5541 5541 5542 5544 5546
5666 5665 5670 5672 5681 5682 5680 5683 5684 5682 5681 5679 5677 5669 5665 5653 5639 5623 5611 5601 5591 5583 5576 5570 5564 5558 5553 5550 5547 5544 5541 5539 5538 5536 5535 5533 5532 5532 5531 5531 5532 5533 5534 5535
5661 5659 5661 5666 5676 5675 5669 5677 5678 5677 5678 5674 5668 5662 5653 5639 5628 5617 5606 5597 5588 5579 5571 5564 5558 5553 5547 5543 5540 5537 5534 5532 5531 5529 5527 5526 5525 5524 5524 5524 5524 5524 5524 5526
5651 5655 5659 5663 5664 5653 5666 5680 5677 5673 5669 5669 5664 5655 5646 5633 5623 5614 5604 5594 5583 5574 5566 5558 5553 5546 5540 5536 5533 5531 5528 5526 5524 5522 5521 5519 5518 5517 5516 5516 5516 5516 5516 5517
5651 5651 5655 5658 5659 5662 5666 5670 5669 5664 5659 5658 5652 5642 5632 5622 5611 5600 5595 5587 5579 5569 5560 5553 5547 5540 5535 5531 5528 5525 5522 5521 5519 5517 5515 5514 5513 5512 5511 5510 5509 5510 5509 5509
5651 5652 5654 5654 5649 5648 5653 5665 5669 5661 5648 5649 5645 5635 5626 5618 5612 5598 5588 5580 5570 5561 5554 5547 5541 5535 5530 5526 5523 5521 5518 5516 5514 5512 5510 5509 5508 5507 5506 5505 5504 5504 5504 5504
5647 5648 5650 5651 5650 5654 5654 5662 5664 5647 5637 5643 5640 5632 5625 5620 5616 5599 5584 5573 5563 5555 5548 5542 5536 5530 5526 5522 5520 5517 5515 5513 5511 5509 5507 5505 5504 5503 5502 5501 5500 5500 5500 5499
5644 5646 5647 5649 5645 5641 5649 5656 5645 5637 5641 5640 5634 5628 5620 5611 5602 5589 5578 5567 5557 5549 5543 5537 5531 5526 5523 5520 5518 5515 5512 5510 5508 5506 5504 5503 5502 5502 5500 5498 5497 5497 5497 5496
5642 5640 5643 5643 5641 5642 5644 5640 5639 5640 5637 5635 5629 5622 5613 5602 5591 5581 5571 5561 5553 5546 5540 5534 5529 5524 5521 5519 5517 5514 5511 5509 5507 5505 5502 5501 5500 5499 5498 5497 5496 5496 5496 5498
5642 5642 5641 5642 5642 5640 5639 5638 5637 5637 5635 5631 5624 5616 5607 5597 5586 5575 5566 5557 5550 5543 5537 5532 5528 5524 5520 5517 5515 5512 5509 5507 5505 5503 5501 5500 5499 5498 5497 5497 5498 5498 5498 5498
5634 5637 5637 5637 5637 5636 5634 5633 5632 5631 5629 5624 5617 5611 5602 5593 5582 5573 5563 5555 5548 5542 5536 5532 5528 5524 5520 5517 5514 5511 5509 5506 5505 5503 5502 5501 5501 5499 5497 5496 5493 5494 5492 5492
5635 5633 5632 5632 5631 5632 5628 5629 5628 5625 5622 5617 5611 5604 5597 5590 5580 5571 5562 5555 5548 5542 5537 5533 5529 5525 5521 5518 5514 5511 5509 5508 5506 5504 5504 5505 5504 5502 5501 5498 5494 5487 5489 5487